Cloud_Cover
0 4 0 0 0 3 5 5 4 34 100 100 18 8 5 23 11 13 10 13 98 87 2 68 67 89 33 1 0 3 4 0 0 0 0 0 0 0 0 0 99 48 8
3 0 4 5 5 5 4 9 0 30 98 48 18 6 0 6 4 0 3 1 0 3 100 100 100 91 5 0 0 0 0 0 0 0 0 0 0 0 0 0 1 40 14
3 4 5 5 5 2 1 4 11 44 44 10 16 0 8 27 0 1 0 0 0 23 94 59 98 98 6 7 0 0 0 0 0 2 0 0 0 0 40 3 5 2 17
40 5 32 50 61 5 3 0 0 0 0 1 0 0 4 27 18 37 6 5 5 0 2 16 4 0 0 0 0 0 0 0 0 0 0 22 16 18 33 8 32 78 90
7 6 69 92 38 2 0 0 0 0 0 0 5 4 2 24 24 21 5 5 5 2 3 0 0 0 0 0 0 0 0 0 4 1 6 92 100 34 17 23 44 16 18
5 5 42 100 8 0 0 0 0 0 0 0 0 6 5 24 22 5 5 5 9 5 5 3 0 0 0 0 0 0 5 3 5 5 0 7 41 30 16 8 5 5 5
5 11 99 100 7 1 0 0 0 0 0 0 0 2 90 96 32 5 33 6 85 5 5 3 0 0 0 1 0 0 5 5 5 5 16 34 16 44 9 5 5 5 7
4 7 90 54 5 0 16 0 0 0 0 0 0 84 100 100 99 77 15 79 56 37 5 2 0 0 0 0 0 4 5 5 5 7 15 5 5 42 5 4 5 5 12
40 23 92 40 3 10 0 52 0 0 0 0 0 0 4 34 24 46 33 74 60 44 5 0 0 0 0 0 0 4 5 5 5 5 5 5 5 5 5 5 5 2 0
83 99 100 99 21 39 6 100 14 1 0 0 0 5 0 5 5 88 49 57 48 5 5 0 0 0 2 5 5 5 5 5 5 5 5 5 5 5 6 5 4 1 4
45 100 100 99 41 63 48 100 100 85 0 0 0 2 5 5 42 66 74 16 5 5 2 0 5 5 5 7 5 5 5 5 5 5 5 5 5 12 10 2 5 5 5
84 58 100 96 94 75 27 100 100 99 33 23 0 0 0 5 5 5 5 5 5 1 1 5 5 5 5 8 5 21 44 9 5 5 5 5 5 5 57 5 5 5 5
100 100 100 100 70 94 54 100 100 100 41 49 17 5 5 5 4 0 0 0 0 10 6 5 23 27 6 21 56 17 8 5 5 5 5 5 5 5 5 5 5 5 5
100 100 95 100 52 38 100 78 100 42 16 35 25 5 5 5 5 5 5 5 4 3 5 16 10 29 32 63 41 19 5 5 38 7 8 5 12 38 72 9 5 11 6
100 100 100 70 53 58 47 100 100 69 11 12 15 5 5 8 8 5 5 5 5 5 5 5 5 24 49 32 49 21 8 80 17 73 21 5 6 31 5 40 16 23 24
100 100 100 85 80 92 84 61 80 54 13 2 1 5 5 16 48 6 14 87 63 11 5 5 6 73 91 39 15 14 56 100 37 37 5 5 59 8 24 12 59 5 6
100 100 100 100 100 100 100 100 48 42 5 5 3 5 5 5 18 18 12 17 14 5 8 39 76 68 5 6 5 28 100 100 11 5 6 40 5 10 6 5 5 2 4
100 100 100 100 100 100 100 100 100 100 63 8 5 15 9 65 48 36 21 59 67 64 70 85 16 19 23 17 83 48 52 41 24 37 26 16 5 10 8 5 5 5 0
100 100 100 100 100 100 100 100 97 69 100 100 72 47 58 25 12 10 18 57 74 61 28 26 39 48 46 79 100 100 53 60 96 99 41 17 50 5 5 5 5 4 3
100 100 100 100 100 100 100 100 100 100 68 20 75 72 64 32 5 11 37 53 84 73 46 41 64 96 100 100 100 88 78 99 100 100 100 33 5 5 5 5 5 1 0
100 92 100 100 100 100 100 100 100 100 100 84 100 100 100 100 100 83 50 34 60 55 65 94 100 100 100 100 100 100 100 100 100 95 66 5 24 5 5 5 5 5 0
100 100 100 100 100 100 100 100 100 100 100 100 100 100 100 100 97 100 100 100 100 100 100 100 100 100 100 100 100 100 100 95 100 78 23 12 21 81 20 5 3 3 0
100 100 100 100 100 100 100 100 100 100 100 99 100 100 100 100 100 100 100 100 100 100 100 100 100 100 100 100 100 100 83 93 99 100 100 97 55 14 5 5 1 2 5
100 100 100 100 100 100 100 100 100 100 100 100 99 100 100 100 100 100 100 100 100 100 100 100 100 100 100 100 100 100 100 100 99 100 100 89 48 5 5 5 5 5 3
100 100 100 100 100 100 100 100 100 100 100 100 100 100 100 100 100 100 100 100 100 100 100 100 100 100 100 100 100 100 100 100 100 100 100 100 29 5 5 5 52 10 13
100 100 100 100 100 100 100 100 100 100 100 100 100 100 100 100 100 100 100 100 100 100 100 100 100 100 100 100 100 100 100 100 100 96 94 100 100 46 5 20 5 66 32